Location: Camp Crooked Creek
(37.9149°N, 85.6607°W)
Time: 20:44:41
(UTC-04:00)

Daily predictions for brighter satellites

Satellite Brightness Start Highest point End
(mag) Time Altitude Azimuth Time Altitude Azimuth Time Altitude Azimuth
HJ-1C 3.9 20:25:23 10° SE 20:28:34 39° ENE 20:31:47 10° N
SeaSat 1 2.7 20:24:13 10° SE 20:28:58 50° ENE 20:33:44 10° NNW
Cosmos 1937 Rocket 4.0 20:27:18 10° SSW 20:32:30 67° WNW 20:37:47 10° NNE
Cosmos 2123 Rocket 4.1 20:28:55 10° N 20:35:08 56° E 20:41:16 10° SSE
SL-27 R/B 2.4 20:33:48 10° NNW 20:37:24 71° ENE 20:41:00 10° SSE
RESURS DK-1 2.3 20:35:11 10° NNW 20:39:19 74° ENE 20:43:26 10° SSE
CZ-3C R/B 4.2 20:38:25 10° WSW 20:40:04 10° SW 20:41:25 10° SW
Cosmos 2344 3.8 20:32:25 10° SW 20:40:06 82° WNW 20:48:35 10° NNE
CZ-2D R/B 4.1 20:39:24 10° SE 20:42:49 31° ENE 20:46:16 10° N
CZ-3B DEB 3.7 20:31:58 10° WSW 20:44:26 60° NW 20:50:07 10° NE
Cosmos 1805 3.5 20:43:21 10° SSE 20:47:03 45° E 20:50:48 10° NNE
In-Cosmos 22 4.1 20:41:50 10° N 20:47:05 57° E 20:52:15 10° SSE
GPS 2-05 Rocket1 3.8 20:45:49 10° SW 20:49:03 34° SSE 20:51:23 16° ESE
Cosmos 1818 4.1 20:45:07 10° NNW 20:50:16 42° NE 20:54:41 14° ESE
Cosmos 1378 4.2 20:47:54 10° NNW 20:51:33 50° W 20:55:10 10° S
ALOS 2.3 20:47:23 10° SSE 20:52:03 85° W 20:56:45 10° NNW
COSMOS 2487 4.0 20:49:30 10° NNE 20:52:07 19° ENE 20:53:16 16° E
Resurs 1-3 3.7 20:50:13 10° SSE 20:54:28 53° ENE 20:58:45 10° N
Meteor 1-4 Rocket 2.6 20:55:05 10° S 20:58:25 47° E 21:01:47 10° NNE
Timation 1 Rocket 4.3 20:53:16 10° SSW 20:59:12 69° ESE 21:05:12 10° NNE
FENGYUN 3A 3.9 20:56:09 10° S 21:01:33 76° WSW 21:06:58 10° NNW
Cosmos 1833 Rocket 3.4 20:57:15 10° N 21:02:20 34° ENE 21:05:39 19° ESE
Cosmos 1470 3.8 21:00:37 14° SE 21:03:09 25° E 21:06:26 10° NE
Cosmos 1408 Rocket 4.3 21:01:13 10° NNE 21:05:17 33° ENE 21:07:46 19° SE
SJ-6B 4.3 21:02:48 10° SSW 21:06:17 37° W 21:09:46 10° NNW
Cosmos 2278 Rocket 2.9 21:00:43 10° SW 21:06:17 59° WNW 21:11:55 10° NNE
Cosmos 1544 3.0 21:03:11 10° S 21:06:49 85° E 21:10:30 10° N
Cosmos 372 Rocket 4.0 21:05:38 10° S 21:10:34 53° ESE 21:15:34 10° NNE
CZ-4B DEB 3.9 21:12:04 25° ENE 21:12:04 25° ENE 21:14:27 10° NNE
Cosmos 2098 Rocket 4.4 21:05:02 10° S 21:12:06 71° E 21:19:41 10° NNE
Cosmos 1340 Rocket 4.1 21:08:56 10° NNE 21:12:07 22° ENE 21:12:09 22° ENE
Cosmos 1733 4.0 21:10:59 25° ESE 21:12:09 30° E 21:15:34 10° NNE
Cosmos 1459 Rocket 4.4 21:07:17 10° SSE 21:13:00 39° E 21:18:39 10° NNE
Cosmos 1447 Rocket 4.4 21:07:09 10° N 21:13:14 62° E 21:19:18 10° SSE
ATLAS 5 CENTAUR R/B 1.8 21:13:01 10° SSW 21:17:29 50° ESE 21:22:17 10° NE
ISS -3.5 21:15:00 10° SSW 21:18:05 43° SE 21:18:25 41° ESE
Cosmos 2173 Rocket 4.3 21:13:02 10° SSE 21:18:44 42° E 21:24:33 10° NNE
USA 215 3.4 21:13:10 10° NE 21:19:27 48° SE 21:25:41 10° SSW
Cosmos 158 Rocket 4.3 21:15:16 10° N 21:20:13 46° ENE 21:22:45 26° SE
H-II Stage 2 3.2 21:19:45 10° SSW 21:20:30 13° S 21:20:30 13° S
Okean 3 Rocket 3.9 21:16:53 10° NNW 21:21:15 69° W 21:25:38 10° S
H-2A R/B 3.5 21:17:46 10° S 21:21:34 55° W 21:25:26 10° NNW
Cosmos 2297 3.6 21:16:26 10° SSW 21:22:08 85° ESE 21:27:54 10° NNE
Cosmos 1867 3.6 21:19:00 10° SSW 21:24:26 88° WNW 21:29:56 10° NNE
Tiangong 1 2.5 21:22:42 10° W 21:25:14 26° SSW 21:25:54 23° S
Spot 2 Rocket 3.9 21:21:53 10° S 21:26:56 64° WSW 21:32:02 10° NNW
Abrixas 2.3 21:24:08 10° NW 21:26:57 63° NNE 21:26:58 63° NE
Cosmos 1758 4.0 21:27:52 10° SSW 21:31:46 55° W 21:35:42 10° N
Helios 1B rocket 2.3 21:29:30 10° NNE 21:33:38 87° ESE 21:37:45 10° SSW
Cosmos 1076 Rocket 3.5 21:30:16 10° N 21:34:31 77° W 21:38:07 14° S
Lacrosse 5 4.0 21:33:41 10° W 21:37:53 25° NW 21:42:05 10° NNE
Cosmos 2082 Rocket 2.1 21:32:40 10° NNW 21:38:22 76° ENE 21:41:10 31° SSE
USA 186 3.1 21:39:55 26° NW 21:39:55 26° NW 21:41:08 10° NNW
Cosmos 1953 3.3 21:35:46 10° SSW 21:39:43 49° W 21:43:40 10° N
SWAS 4.4 21:37:47 10° SSW 21:42:04 84° WNW 21:46:24 10° NNE
GP-B 3.2 21:40:07 10° S 21:44:33 78° W 21:49:00 10° N
Envisat 2.9 21:42:59 36° SSE 21:45:00 69° ENE 21:50:04 10° N
Cosmos 1939 Rocket 3.0 21:45:32 57° ENE 21:45:32 57° ENE 21:49:37 10° N
Helios 1A 3.1 21:43:23 25° S 21:45:41 70° WSW 21:49:52 10° NNW
Cosmos 1271 Rocket 2.7 21:45:01 14° S 21:48:25 85° W 21:52:27 10° N
Cosmos 1766 Rocket 3.7 21:45:51 10° NNW 21:50:19 73° W 21:52:35 29° S
Cosmos 2016 Rocket 4.0 21:47:01 26° SSE 21:50:26 55° E 21:56:26 10° NNE
Resurs 01 Rocket 3.5 21:46:43 10° SSW 21:50:32 29° W 21:54:24 10° NW
H-2A R/B 4.3 21:52:51 11° NE 21:52:51 11° NE 21:53:31 10° NE
Cosmos 1725 Rocket 4.3 21:59:08 42° ENE 21:59:08 42° ENE 22:04:27 10° NNE
Cosmos-2242 3.5 21:54:38 10° SSW 21:58:48 59° W 22:03:02 10° N
Cosmos 1048 Rocket 4.3 21:55:03 10° NNW 22:00:06 60° WSW 22:02:27 31° S
ERS-1 Rocket 3.2 22:03:21 53° NE 22:03:21 53° NE 22:07:55 10° N
Lacrosse 5 rocket 2.4 21:59:47 10° NNW 22:02:25 32° N 22:02:25 32° N
Cosmos 1674 3.8 22:02:31 10° NNW 22:06:06 42° W 22:06:52 37° SW
Cosmos 2100 Rocket 4.2 22:00:11 10° SSW 22:06:29 72° W 22:12:51 10° N
SJ-11-01 4.3 22:06:19 57° SSW 22:07:12 76° WSW 22:11:57 10° NNW
SL-08 R/B 4.4 22:10:08 52° SSE 22:11:39 69° E 22:18:02 10° NNE
Tsikada Rocket 4.3 22:12:07 10° N 22:17:28 49° ENE 22:17:28 49° ENE
Cosmos 1743 Rocket 4.1 22:17:23 10° NNW 22:21:02 56° NW 22:21:02 56° NW
Cosmos 1802 Rocket 4.4 22:21:46 10° SSW 22:27:47 61° W 22:33:53 10° N
Cosmos 2251 Rocket 4.0 22:30:03 10° NNW 22:34:11 55° N 22:34:11 55° N
Cosmos 1833 Rocket 4.1 22:41:17 10° NW 22:46:08 31° WSW 22:47:24 28° SW
USA 215 4.0 22:56:11 10° NE 23:02:24 48° NW 23:08:35 10° WSW
ATLAS 5 CENTAUR R/B 4.2 22:58:51 10° W 23:02:29 21° NW 23:06:22 10° N
H-2A R/B 4.2 23:33:29 22° NNW 23:33:29 22° NNW 23:35:17 10° NNW
USA 267 4.2 23:35:30 42° NNW 23:35:30 42° NNW 23:39:50 10° NW
